Location: Invercargill
(46.4000°S, 168.3500°E)
Time: 20:25:01
(UTC+13:00)

Cosmos 2322 - Pass Details

Date: 24 January 2019
Orbit: 839 x 856 km, 71.0° (Epoch: 21 February)

Event Time Altitude Azimuth Distance (km) Brightness Sun altitude
Exits shadow 23:18:17 13° 358° (N) 2,242 5.5 -15.1°
Maximum altitude 23:23:07 51° 71° (ENE) 1,066 3.9 -15.6°
Drops below altitude 10° 23:28:39 10° 145° (SE) 2,495 6.4 -16.2°
Sets 23:31:10 0° 149° (SSE) 3,435 7.2 -16.4°
